www.pogodaiklimat.ru

Погода и климат >> Архив погоды >> Бразилия >> Сан-Паулу >> Ибитинга


ПОГОДА в Ибитинге

  • Прогноз погоды в Ибитинге
  • Монитор погоды в Ибитинге

АРХИВ ПОГОДЫ в Ибитинге

Время (UTC), дата Ветер
(напр.,м/с)
 
Видим.   Явления Облачность Т
(С)
Тd
(С)
f
(%)
Тe
(С)
Тes
(С)
Комфортность P
(гПа)
Po
(гПа)
Тmin
(С)
Tmax
(С)
R
(мм)
R24
(мм)
S
(см)
07 10.07 штиль 0
{2}
н/о н/о +9.7 +6.4 80 +9 +9 1023.9 964.2
08 10.07 штиль 0
{1}
н/о н/о +7.7 +6.1 90 +7 +7 1024.3 964.2
09 10.07 штиль 0 н/о н/о +8.1 +6.0 87 +7 +7 1024.3 964.3
10 10.07 штиль 0 н/о н/о +7.3 +5.8 90 +6 +6 1024.8 964.6
11 10.07 С 1
{1}
н/о н/о +8.6 +6.6 87 +9 +9 1025.5 965.5
12 10.07 С 1
{1}
н/о н/о +11.4 +7.9 79 +11 +11 1025.6 966.2
13 10.07 С 1
{2}
н/о н/о +14.8 +8.4 65 +16 +16 1024.8 966.1
14 10.07 С 1
{2}
н/о н/о +18.6 +7.9 50 +21 +21 комфорт 1023.6 965.7
15 10.07 В 1
{2}
н/о н/о +21.4 +8.0 42 +22 +22 комфорт 1022.2 964.9
16 10.07 штиль 0
{2}
н/о н/о +23.8 +6.4 33 +24 +24 комфорт 1020.4 963.7
17 10.07 ЮЗ 1
{3}
н/о н/о +24.0 +4.9 29 +24 +24 комфорт 1019.5 962.9
18 10.07 ЮВ 1
{3}
н/о н/о +25.2 +3.8 25 +24 +24 комфорт 1018.5 962.2
19 10.07 ЮВ 1
{2}
н/о н/о +25.0 +2.4 23 +24 +24 комфорт 1018.3 961.9
20 10.07 В 1
{2}
н/о н/о +22.5 +3.9 30 +23 +23 комфорт 1018.7 961.8
21 10.07 В 1
{1}
н/о н/о +20.2 +3.6 33 +22 +22 комфорт 1019.0 961.7
22 10.07 штиль 0
{1}
н/о н/о +18.7 +5.7 42 +19 +19 1019.5 961.9
23 10.07 штиль 0
{1}
н/о н/о +18.1 +5.0 42 +18 +18 1020.0 962.2
00 11.07 штиль 0
{1}
н/о н/о +17.6 +5.2 44 +18 +18 1020.2 962.3
01 11.07 штиль 0
{2}
н/о н/о +13.7 +6.4 61 +13 +13 1021.2 962.5
02 11.07 штиль 0
{1}
н/о н/о +12.6 +6.4 66 +12 +12 1021.4 962.5
04 11.07 штиль 0
{2}
н/о н/о +11.9 +7.7 75 +11 +11 1021.4 962.3
05 11.07 С 1
{2}
н/о н/о +11.0 +7.6 80 +12 +12 1021.0 961.8
06 11.07 СЗ 1
{2}
н/о н/о +10.1 +7.1 82 +11 +11 1020.7 961.3
07 11.07 штиль 0
{2}
н/о н/о +8.6 +6.6 87 +8 +8 1020.5 960.8
08 11.07 СЗ 1
{1}
н/о н/о +8.8 +6.8 87 +9 +9 1020.9 961.2
09 11.07 С 1
{1}
н/о н/о +7.6 +6.3 91 +8 +8 1021.7 961.7
10 11.07 С 1
{1}
н/о н/о +7.0 +5.9 93 +7 +7 1022.6 962.5
11 11.07 штиль 0
{1}
н/о н/о +9.1 +7.8 92 +8 +8 1023.2 963.5
12 11.07 штиль 0
{1}
н/о н/о +11.8 +9.0 83 +11 +11 1023.4 964.2
13 11.07 С 1
{2}
н/о н/о +15.2 +9.6 69 +16 +16 1023.0 964.5
14 11.07 штиль 0
{1}
н/о н/о +19.2 +9.1 52 +20 +20 1021.3 963.7
15 11.07 штиль 0
{2}
н/о н/о +22.6 +7.4 38 +24 +24 комфорт 1019.9 963.0
16 11.07 В 1
{1}
н/о н/о +23.4 +5.0 30 +23 +23 комфорт 1018.5 961.8
17 11.07 ЮЗ 1
{2}
н/о н/о +23.9 +3.8 27 +23 +23 комфорт 1017.4 960.9
18 11.07 СЗ 1
{2}
н/о н/о +24.4 +3.1 25 +24 +24 комфорт 1016.7 960.3
19 11.07 СВ 1
{2}
н/о н/о +23.4 +3.7 28 +23 +23 комфорт 1016.4 959.8
20 11.07 СВ 1
{2}
н/о н/о +21.8 +5.4 34 +22 +22 комфорт 1016.7 959.8
21 11.07 штиль 0
{1}
н/о н/о +19.5 +5.3 39 +20 +20 1017.3 960.0
22 11.07 штиль 0
{1}
н/о н/о +18.0 +5.4 43 +18 +18 1018.0 960.3
23 11.07 штиль 0
{1}
н/о н/о +17.0 +5.8 48 +17 +17 1018.6 960.7
00 12.07 штиль 0
{1}
н/о н/о +16.1 +5.5 49 +16 +16 1019.2 961.1
01 12.07 С 1
{2}
н/о н/о +14.8 +5.8 55 +15 +15 1019.9 961.5
02 12.07 С 1
{2}
н/о н/о +14.0 +6.6 61 +15 +15 1019.7 961.2
03 12.07 СЗ 1
{2}
н/о н/о +12.9 +6.4 65 +14 +14 1020.0 961.2
04 12.07 СЗ 1
{1}
н/о н/о +12.2 +5.9 65 +13 +13 1019.7 960.8
05 12.07 штиль 0
{1}
н/о н/о +11.5 +6.0 69 +11 +11 1019.2 960.2
06 12.07 СЗ 1
{1}
н/о н/о +10.7 +5.6 71 +11 +11 1019.0 959.8
07 12.07 штиль 0
{1}
н/о н/о +10.5 +5.2 70 +10 +10 1019.2 960.0
08 12.07 штиль 0
{1}
н/о н/о +8.7 +5.7 81 +8 +8 1019.8 960.2
09 12.07 штиль 0 н/о н/о +8.2 +5.6 84 +7 +7 1020.2 960.5
10 12.07 штиль 0
{1}
н/о н/о +7.9 +5.1 82 +7 +7 1020.7 960.9
11 12.07 З 1
{1}
н/о н/о +10.8 +6.5 75 +11 +11 1020.9 961.6
12 12.07 штиль 0
{2}
н/о н/о +13.2 +8.1 71 +13 +13 1020.9 962.1
13 12.07 С 1
{1}
н/о н/о +15.5 +7.4 58 +17 +17 1020.9 962.6
14 12.07 штиль 0
{1}
н/о н/о +19.6 +8.3 48 +20 +20 1019.9 962.4
15 12.07 штиль 0
{1}
н/о н/о +23.2 +7.8 37 +24 +24 комфорт 1018.4 961.7
16 12.07 штиль 0
{2}
н/о н/о +26.1 +8.0 32 +26 +26 жарко 1016.8 960.7
17 12.07 СВ 1
{2}
н/о н/о +26.0 +7.6 31 +26 +26 жарко 1016.1 960.0
18 12.07 СВ 1
{2}
н/о н/о +26.1 +6.3 28 +26 +26 жарко 1015.5 959.5
19 12.07 В 1
{3}
н/о н/о +25.9 +5.9 28 +25 +25 комфорт 1015.4 959.4
20 12.07 штиль 0
{2}
н/о н/о +24.2 +6.9 33 +24 +24 комфорт 1016.0 959.6
21 12.07 штиль 0
{1}
н/о н/о +22.9 +6.5 35 +24 +24 комфорт 1016.5 959.8
22 12.07 штиль 0 н/о н/о +21.5 +6.1 37 +22 +22 комфорт 1016.9 960.0
23 12.07 штиль 0
{1}
н/о н/о +20.5 +7.3 42 +21 +21 комфорт 1017.6 960.4
00 13.07 штиль 0
{1}
н/о н/о +18.2 +8.8 54 +18 +18 1018.3 960.7
01 13.07 СЗ 1
{1}
н/о н/о +17.8 +8.3 54 +19 +19 1018.6 960.9
02 13.07 штиль 0
{1}
н/о н/о +14.6 +8.9 69 +14 +14 1019.5 961.1
03 13.07 штиль 0
{1}
н/о н/о +13.2 +9.2 77 +13 +13 1019.7 961.0
04 13.07 СЗ 1
{2}
н/о н/о +13.0 +8.3 73 +14 +14 1019.5 960.8
05 13.07 СЗ 1
{2}
н/о н/о +12.7 +8.8 77 +13 +13 1019.1 960.3
06 13.07 штиль 0
{2}
н/о н/о +11.3 +8.3 82 +11 +11 1019.3 960.2
07 13.07 штиль 0
{1}
н/о н/о +10.8 +8.2 84 +10 +10 1019.2 960.0
08 13.07 СЗ 1
{1}
н/о н/о +10.5 +8.3 86 +11 +11 1019.4 960.2
09 13.07 СЗ 1
{2}
н/о н/о +10.6 +8.2 85 +11 +11 1020.0 960.8
11 13.07 штиль 0 н/о н/о +11.7 +8.8 82 +11 +11 1021.2 962.1
12 13.07 штиль 0
{1}
н/о н/о +13.3 +10.2 81 +13 +13 1021.7 962.9
14 13.07 СВ 1
{1}
н/о н/о +20.6 +10.6 53 +24 +24 комфорт 1019.8 962.5
15 13.07 З 1
{2}
н/о н/о +27.0 +10.1 35 +28 +28 жарко 1017.5 961.5
17 13.07 ЮВ 1
{2}
н/о н/о +28.3 +7.0 26 +28 +28 жарко 1015.0 959.4
18 13.07 В 1
{3}
н/о н/о +28.0 +7.3 27 +27 +27 жарко 1014.4 958.8
19 13.07 В 2
{3}
н/о н/о +27.6 +7.3 28 +27 +27 жарко 1014.4 958.7
20 13.07 В 1
{3}
н/о н/о +26.3 +8.2 32 +26 +26 жарко 1014.7 958.8
21 13.07 В 1
{1}
н/о н/о +23.5 +8.2 38 +24 +24 комфорт 1015.4 958.9
22 13.07 штиль 0
{1}
н/о н/о +23.0 +7.3 36 +24 +24 комфорт 1015.6 959.0
23 13.07 штиль 0
{1}
н/о н/о +20.6 +8.6 46 +22 +22 комфорт 1016.5 959.4
00 14.07 штиль 0
{1}
н/о н/о +19.1 +9.3 53 +20 +20 1017.1 959.7
01 14.07 штиль 0
{1}
н/о н/о +18.4 +9.7 57 +19 +19 1017.7 960.1
02 14.07 СЗ 1
{2}
н/о н/о +17.5 +9.8 61 +19 +19 1018.0 960.2
03 14.07 штиль 0
{1}
н/о н/о +15.8 +10.0 68 +16 +16 1018.2 960.1
04 14.07 штиль 0
{1}
н/о н/о +14.4 +10.1 75 +14 +14 1018.5 960.1
05 14.07 штиль 0
{1}
н/о н/о +13.8 +9.4 75 +13 +13 1018.3 959.8
06 14.07 СЗ 1
{2}
н/о н/о +13.6 +9.7 77 +15 +15 1018.0 959.5
07 14.07 штиль 0
{1}
н/о н/о +11.7 +9.5 86 +11 +11 1018.1 959.2
08 14.07 СЗ 1
{2}
н/о н/о +11.9 +9.2 84 +13 +13 1018.2 959.3
09 14.07 штиль 0
{1}
н/о н/о +10.5 +8.7 89 +10 +10 1018.9 959.7
10 14.07 СЗ 1
{2}
н/о н/о +10.5 +8.1 85 +10 +10 1019.3 960.1
11 14.07 штиль 0
{2}
н/о н/о +13.0 +10.1 83 +13 +13 1019.7 961.0
12 14.07 штиль 0
{2}
н/о н/о +16.6 +11.3 71 +17 +17 1019.3 961.3
13 14.07 штиль 0
{1}
н/о н/о +20.2 +12.2 60 +22 +22 комфорт 1018.6 961.3
14 14.07 З 1
{2}
н/о н/о +25.4 +11.4 42 +27 +27 жарко 1017.1 960.9
15 14.07 З 1
{2}
н/о н/о +28.4 +7.4 27 +28 +28 жарко 1015.7 960.1
16 14.07 ЮВ 2
{3}
н/о н/о +29.3 +5.5 22 +28 +28 жарко 1014.4 959.0
17 14.07 ЮВ 2
{5}
н/о н/о +29.9 +5.2 21 +28 +28 жарко 1013.3 958.1
18 14.07 ЮВ 2
{4}
н/о н/о +30.1 +5.5 21 +28 +28 жарко 1012.4 957.3
19 14.07 Ю 2
{4}
н/о н/о +29.6 +5.6 22 +28 +28 жарко 1012.3 957.1
20 14.07 Ю 1
{3}
н/о н/о +27.1 +7.2 28 +27 +27 жарко 1013.0 957.3
21 14.07 ЮВ 1
{2}
н/о н/о +26.4 +6.2 28 +26 +26 жарко 1013.3 957.5
22 14.07 В 1
{2}
н/о н/о +24.4 +6.2 31 +24 +24 комфорт 1014.0 957.8
23 14.07 штиль 0
{1}
н/о н/о +22.2 +7.8 40 +23 +23 комфорт 1015.1 958.4
00 15.07 штиль 0
{2}
н/о н/о +22.8 +7.4 37 +24 +24 комфорт 1015.3 958.7
01 15.07 штиль 0
{2}
н/о н/о +19.3 +8.2 49 +20 +20 1016.1 958.8
02 15.07 С 1
{2}
н/о н/о +15.0 +9.9 72 +16 +16 1017.0 958.8
03 15.07 СЗ 1
{2}
н/о н/о +16.9 +8.8 59 +18 +18 1016.4 958.6
04 15.07 З 1
{2}
н/о н/о +16.5 +9.7 64 +18 +18 1016.3 958.4
05 15.07 штиль 0
{2}
н/о н/о +16.2 +9.5 64 +16 +16 1015.8 957.9
06 15.07 штиль 0
{2}
н/о н/о +15.0 +10.0 72 +15 +15 1015.7 957.6
07 15.07 С 1
{2}
н/о н/о +14.3 +9.6 73 +15 +15 1015.5 957.3
08 15.07 штиль 0
{2}
н/о н/о +14.4 +9.7 73 +14 +14 1015.6 957.4
09 15.07 штиль 0
{2}
н/о н/о +14.9 +9.9 72 +15 +15 1015.8 957.7
10 15.07 З 1
{2}
н/о н/о +18.2 +8.8 54 +19 +19 1015.4 957.9
11 15.07 штиль 0
{2}
н/о н/о +14.3 +10.9 80 +14 +14 1016.8 958.5
12 15.07 штиль 0
{1}
н/о н/о +20.2 +12.0 59 +22 +22 комфорт 1016.3 959.1
13 15.07 штиль 0
{1}
н/о н/о +23.8 +11.0 45 +25 +25 комфорт 1015.9 959.4
14 15.07 штиль 0
{2}
н/о н/о +25.3 +10.8 40 +26 +26 жарко 1015.4 959.2
15 15.07 Ю 1
{2}
н/о н/о +28.6 +8.8 29 +28 +28 жарко 1013.9 958.4
16 15.07 ЮЗ 1
{3}
н/о н/о +29.8 +7.5 25 +29 +29 жарко 1012.5 957.3
17 15.07 ЮВ 1
{3}
н/о н/о +30.2 +8.4 26 +30 +30 жарко 1011.7 956.6
18 15.07 ЮВ 1
{3}
н/о н/о +29.8 +8.4 26 +29 +29 жарко 1011.4 956.3
20 15.07 В 1
{2}
н/о н/о +27.4 +8.8 31 +27 +27 жарко 1011.7 956.1
21 15.07 В 2
{5}
н/о н/о +24.9 +11.0 42 +26 +26 жарко 1013.0 956.9
22 15.07 СВ 3
{6}
н/о н/о +20.8 +14.2 66 +24 +24 комфорт 1014.8 957.8
23 15.07 СВ 3
{5}
н/о н/о +20.2 +13.4 65 +23 +23 комфорт 1016.6 959.4
00 16.07 СВ 2
{5}
н/о н/о +18.8 +13.9 73 +20 +20 1017.5 960.0
01 16.07 СВ 2
{5}
н/о н/о +18.2 +13.9 76 +19 +19 1018.1 960.5
02 16.07 С 2
{5}
н/о н/о +18.0 +12.8 72 +19 +19 1017.9 960.2
03 16.07 С 2
{5}
н/о н/о +16.1 +13.7 86 +16 +16 1018.1 960.1 0.2
04 16.07 штиль 0
{3}
н/о н/о +15.8 +13.8 88 +16 +16 1018.1 960.0
05 16.07 штиль 0
{1}
н/о н/о +15.8 +13.9 88 +16 +16 1018.1 960.0 0.2
06 16.07 штиль 0
{2}
н/о н/о +16.1 +13.7 86 +16 +16 1017.0 959.0 0.2
07 16.07 штиль 0
{1}
н/о н/о +15.5 +14.0 91 +15 +15 1017.0 958.9
08 16.07 штиль 0
{3}
н/о н/о +15.6 +14.0 90 +15 +15 1017.5 959.4
09 16.07 Ю 1
{1}
н/о н/о +15.0 +13.7 92 +16 +16 1017.9 959.7
10 16.07 штиль 0
{1}
н/о н/о +14.8 +13.8 94 +14 +14 1018.3 960.0
11 16.07 штиль 0
{1}
н/о н/о +14.9 +13.9 94 +15 +15 1019.3 961.0 0.2
12 16.07 штиль 0
{1}
н/о н/о +17.1 +15.1 88 +17 +17 1019.7 961.8
13 16.07 СВ 1
{2}
н/о н/о +19.0 +14.8 77 +22 +22 комфорт 1020.0 962.4
14 16.07 СВ 2
{3}
н/о н/о +20.0 +13.1 64 +23 +23 комфорт 1020.0 962.6
15 16.07 С 1
{3}
н/о н/о +21.5 +13.9 62 +24 +24 комфорт 1019.0 961.9
16 16.07 С 1
{3}
н/о н/о +22.7 +13.3 55 +26 +26 жарко 1017.9 961.1
17 16.07 СВ 2
{3}
н/о н/о +22.6 +12.4 52 +25 +25 комфорт 1017.3 960.5
18 16.07 С 2
{3}
н/о н/о +23.1 +10.3 44 +25 +25 комфорт 1016.8 960.2
19 16.07
{3}
н/о н/о +23.2 +10.9 46 1016.8 960.2
20 16.07 С 1
{3}
н/о н/о +22.1 +9.7 45 +24 +24 комфорт 1017.2 960.4
21 16.07 штиль 0
{2}
н/о н/о +19.2 +10.9 59 +20 +20 1018.4 960.9
22 16.07 штиль 0
{1}
н/о н/о +17.6 +10.6 64 +18 +18 1019.3 961.5
23 16.07 С 2
{4}
н/о н/о +16.4 +11.3 72 +17 +17 1020.5 962.4
00 17.07
{4}
н/о н/о +15.2 +9.5 69 1021.7 963.3
01 17.07 С 2
{4}
н/о н/о +14.2 +8.5 69 +14 +14 1023.0 964.3
02 17.07 С 2
{4}
н/о н/о +12.9 +7.9 72 +12 +12 1024.1 965.1
03 17.07 С 2
{4}
н/о н/о +11.7 +8.0 78 +11 +11 1024.6 965.3
04 17.07 СЗ 2
{3}
н/о н/о +10.8 +6.5 75 +10 +10 1025.0 965.5
05 17.07 С 2
{4}
н/о н/о +10.0 +4.6 69 +9 +9 1025.0 965.3

 

Местоположение метеостанции Ибитинга (Сан-Паулу, Бразилия): широта -21.86 долгота -48.80 высота над уровнем моря 494 м.

В архиве по умолчанию представлена погода в Ибитинге за последнюю неделю. Архивные данные за месяц целиком и за предыдущие месяцы, начиная с января 2011 года, Вы можете получить, выбрав интересующий диапазон дат из раскрывающегося списка и нажав кнопку "Ввод!".


*Определитесь, кто Вы:
робот инопланетянин человек

Внимание! Время в таблицах - всемирное. Для получения местного времени необходимо прибавить поправку, которая равна -3 ч.

Смотрите также архив погоды в соседних городах и на ближайших метеорологических станциях:

Погода в Бауру (Сан-Паулу, Бразилия) (58 км)
Погода в Барра-Боните (Сан-Паулу, Бразилия) (73 км)
Погода в Ариранье (Сан-Паулу, Бразилия) (81 км)
Погода в Катандуве (Сан-Паулу, Бразилия) (83 км)
Погода в Прадополисе (Сан-Паулу, Бразилия) (92 км)
Погода в Сан-Карлусе (Сан-Паулу, Бразилия) (96 км)
Погода в Сан-Карлосе (Сан-Паулу, Бразилия) (96 км)
Погода в Линсе (Сан-Паулу, Бразилия) (98 км)
Погода в Аваре (Сан-Паулу, Бразилия) (139 км)
Погода в Хосе-Бонифацио (Сан-Паулу, Бразилия) (145 км)

Пояснения к столбцам:

Ветер - указаны скорость ветра в м/с - средняя за 10 мин, порывы в срок и между сроками (в фигурных скобках) и направление, откуда дует ветер: С - северный, СВ - северо-восточный, В - восточный, ЮВ - юго-восточный, Ю - южный, ЮЗ - юго-западный, З - западный, СЗ - северо-западный.
Видимость - горизонтальная дальность видимости в метрах или километрах. При видимости от 1 до 10 км при отсутствии осадков обычно наблюдается дымка, при ухудшении видимости до 1 км и менее - туман. В сухую погоду видимость может ухудшаться дымом, пылью или мглою.
Явления - указаны атмосферные явления, наблюдавшиеся в срок или в последний час перед сроком; фигурными скобками обозначены явления, наблюдавшиеся между сроками (за 1-3 часа до срока); квадратными скобками обозначены град или гололедные отложения с указанием их диаметра в мм.
Облачность - указаны через наклонную черту общая и нижняя облачность в баллах и высота нижней границы облаков в метрах; квадратными скобками обозначены формы облаков: Ci - перистые, Cs - перисто-слоистые, Cc - перисто-кучевые, Ac - высококучевые, As - высокослоистые, Sc - слоисто-кучевые, Ns - слоисто-дождевые, Cu - кучевые, Cb - кучево-дождевые. Подробнее классификацию облаков см. в Атласе облаков (PDF).
T - Температура воздуха - температура, измеренная на высоте 2 м над землей.
Td - Температура точки росы - температура, при понижении до которой содержащийся в воздухе водяной пар достигнет насыщения.
f - Относительная влажность воздуха - влажноcть воздуха, измеренная на высоте 2 м над землей.
Te - Эффективная температура - температура, которую ощущает одетый по сезону человек в тени. Характеристика душности погоды. При расчете учитывается влияние влажности воздуха и скорости ветра на теплоощущения человека.
Tes - Эффективная температура на солнце - температура, которую ощущает человек, с поправкой на солнечный нагрев. Характеристика знойности погоды. Зависит от высоты солнца над горизонтом, облачности и скорости ветра. Ночью, в пасмурную погоду, а также при ветре 12 м/с и более поправка равна нулю.
P - Атмосферное давление - приведенное к уровню моря атмосферное давление.
Po - Атмосферное давление - измеренное на уровне метеостанции атмосферное давление.
Tmin - Минимальная температура - минимум температуры воздуха на высоте 2 м над землей.
Tmax - Максимальная температура - максимум температуры воздуха на высоте 2 м над землей.
R - Количество осадков - Количество выпавших осадков за период времени, мм. При наведении курсора мыши на число - период времени, за который выпало указанное количество осадков.
R24 - Количество осадков - Количество выпавших осадков за 24 часа, мм.
S - Снежный покров - Высота снежного покрова, см. При наведении курсора мыши на число - состояние снежного покрова и степень покрытия местности в баллах.